Location: Peebles
(55.6412°N, 3.1714°W)
Time: 14:36:05
(UTC+01:00)

deb Agena D - Pass Details

Date: 22 September 2024
Orbit: 793 x 976 km, 99.8° (Epoch: 03 October)

Event Time Altitude Azimuth Distance (km) Brightness Sun altitude
Rises 02:14:06 0° 24° (NNE) 3,472 10.5 -32.5°
Reaches altitude 10° 02:16:56 10° 38° (NE) 2,561 9.5 -32.3°
Maximum altitude 02:21:31 24° 92° (E) 1,785 8.0 -32.1°
Enters shadow 02:22:13 24° 102° (ESE) 1,812 7.9 -32.0°
